Location: Ansan
(43.6898°N, 0.7731°E)
Time: 05:06:56
(UTC+00:00)

Cosmos 1437 Rocket - Pass Details

Date: 15 May 2026
Orbit: 439 x 476 km, 81.2° (Epoch: 6 June)

Event Time Altitude Azimuth Distance (km) Brightness Sun altitude
Exits shadow 21:36:19 13° 227° (SW) 1,440 4.9 -19.9°
Maximum altitude 21:38:59 30° 286° (WNW) 870 4.3 -20.1°
Drops below altitude 10° 21:42:12 10° 350° (N) 1,647 6.2 -20.5°
Sets 21:44:30 0° 1° (N) 2,536 7.1 -20.7°
